User: anonymous   Login
Location: Unspecified
(0.0000°N, 0.0000°E)
Time: 02:58:02
(UTC+00:00)
Language:

MERIDIAN 3 - Orbit

View from above orbital plane
View from above orbital plane
View from above satellite
View from above satellite

Ground track
Ground track

The orbit data is extracted from the following two-line orbital elements,

1 37212U 10058A   17232.21950784 -.00000014  00000-0  10000-3 0  9990
2 37212  63.2434  66.8109 6958979 274.1834 108.6416  2.00609941 49797
Epoch (UTC): 20 August 2017 05:16:05
Eccentricity: 0.6958979
inclination: 63.2434°
perigee height: 1697 km
apogee height: 38658 km
right ascension of ascending node: 66.8109°
argument of perigee: 274.1834°
revolutions per day: 2.00609941
mean anomaly at epoch: 108.6416°
orbit number at epoch: 4979

The dashed part of the orbit path shows where the satellite is in the earth's shadow,  

DLR